OpenBCM V1.13 (Linux)

Packet Radio Mailbox

DB0FHN

[JN59NK Nuernberg]

 Login: GUEST





  
LU9DCE > KEP      22.05.19 19:34l 245 Lines 12080 Bytes #999 (0) @ WW
BID : 25151_LU9DCE
Read: DF7EAV GUEST DK3UZ
Subj: TLE 22 05
Path: DB0FHN<DB0BLO<DB0ERF<DB0RES<IR2UBX<HB9CSR<IK7NXU<HB9ON<IW2OHX<IQ2LB<
      IR2UFV<N3HYM<LU9DCE
Sent: 190522/1801Z 25151@LU9DCE.TOR.BA.ARG.SOAM LinBPQ6.0.18

            __    _  _  ___  ____   ___  ____    ____  ____  ____
           (  )  / )( \/ _ \(    \ / __)(  __)  (  _ \(  _ \/ ___)
           / (_/\) \/ (\__  )) D (( (__  ) _)    ) _ ( ) _ (\___ \
           \____/\____/(___/(____/ \___)(____)  (____/(____/(____/
               ESTACION DE PACKET RADIO - BUENOS AIRES (GF05OM)
                   BOLETINES INFORMATIVOS PROGRAMADOS (BIP)
              28.125 USB @ 300 BAUD --- HELLOCODELINUX@GMAIL.COM

+----------------------------------------------------------------------------+
OSCAR 7
1  7530U 74089B   19141.85284828 -.00000036 +00000-0 +54479-4 0  9997
2  7530 101.7417 109.8018 0012532 042.2092 011.1434 12.53638150036790
OSCAR 11 (UoSAT 2)
1 14781U 84021B   19142.30802157  .00000049  00000-0  12147-4 0  9991
2 14781  97.6128 168.3186 0009757  56.1065 304.1076 14.83085317894709
OSCAR 19 (LUSAT)
1 20442U 90005G   19142.43651667  .00000012  00000-0  20858-4 0  9991
2 20442  98.6470  84.4848 0010840 226.2323 133.7964 14.32925312532473
EYESAT A
1 22825U 93061C   19141.93305437 -.00000019 +00000-0 +10593-4 0  9991
2 22825 098.9021 129.9387 0009533 080.9766 279.2494 14.30058628337710
ITAMSAT
1 22826U 93061D   19141.94118890 -.00000008 +00000-0 +14767-4 0  9993
2 22826 098.8961 129.9420 0010014 071.1324 289.0943 14.30392161337934
RADIO ROSTO
1 23439U 94085A   19141.84467745 -.00000047 +00000-0 -13088-3 0  9994
2 23439 064.8132 161.1581 0146527 118.6638 242.9107 11.27568048004751
JAS 2
1 24278U 96046B   19142.04238049 -.00000036  00000-0  23354-5 0  9997
2 24278  98.5333 299.2082 0349565 311.8490  45.3292 13.53091221124061
TECHSAT 1B
1 25397U 98043D   19141.78825135 -.00000016 +00000-0 +12299-4 0  9990
2 25397 098.6873 082.2731 0002343 103.7329 256.4111 14.23665399083682
ISS (ZARYA)
1 25544U 98067A   19142.49062612  .00001042  00000-0  24062-4 0  9992
2 25544  51.6418 128.8387 0001980  18.7566 125.9632 15.52696081171263
PCSAT
1 26931U 01043C   19141.95443468 -.00000025 +00000-0 +22126-4 0  9993
2 26931 067.0520 075.2548 0006377 279.9433 080.0948 14.30542190920935
SAUDISAT 1C
1 27607U 02058C   19141.48786944 -.00000045  00000-0  14670-4 0  9995
2 27607  64.5532 135.8252 0082120 261.9064  97.2716 14.75546475882879
CUTE-1
1 27844U 03031E   19142.49620300  .00000028  00000-0  32341-4 0  9990
2 27844  98.6844 151.1159 0011060 107.9688 252.2696 14.22177058824425
CUBESAT XI 4
1 27848U 03031J   19142.48059637  .00000019  00000-0  28482-4 0  9993
2 27848  98.6922 151.5946 0010856 118.1945 242.0330 14.21772141824274
MOZHAYETS 4
1 27939U 03042A   19142.48829967  .00000101  00000-0  26690-4 0  9998
2 27939  98.0363 278.8417 0013751 148.8806 211.3221 14.66779771836554
CUBESAT XI 5
1 28895U 05043F   19142.09501576  .00000080  00000-0  24142-4 0  9999
2 28895  97.9551 285.7787 0018211  80.2244 280.1014 14.63661161723459
CUTE-1.7+APD II
1 32785U 08021C   19142.45648485  .00000147  00000-0  21494-4 0  9993
2 32785  97.5494 143.4561 0013030   0.7693 359.3543 14.88299287599633
DELFI C3
1 32789U 08021G   19142.39309026  .00000552  00000-0  40961-4 0  9995
2 32789  97.4665 192.8801 0011388 211.2814 148.7737 15.06895228602851
SEEDS
1 32791U 08021J   19141.98376019  .00000219  00000-0  27635-4 0  9991
2 32791  97.5283 148.9498 0012620 336.9786  23.0865 14.90804066599986
YUBELEINY
1 32953U 08025A   19142.52146975  .00000020  00000-0  75656-4 0  9998
2 32953  82.5019 161.6625 0018916 184.4396 175.6524 12.43089575498933
PRISM (HITOMI)
1 33493U 09002B   19142.31764704  .00000772  00000-0  73262-4 0  9992
2 33493  98.1224  62.2334 0013596 274.5534  85.4133 14.96625590561052
KKS-1 (KISEKI)
1 33499U 09002H   19141.93755589 +.00000072 +00000-0 +18625-4 0  9991
2 33499 098.3520 339.7579 0008028 299.3970 060.6436 14.75434851554705
SWISSCUBE
1 35932U 09051B   19142.45713149  .00000096  00000-0  32719-4 0  9999
2 35932  98.5854 307.6372 0006501 244.6585 115.3939 14.56276720512815
BEESAT
1 35933U 09051C   19141.91214888 +.00000075 +00000-0 +27988-4 0  9995
2 35933 098.5882 308.8215 0004601 261.7386 098.3289 14.56366745512763
ITUPSAT 1
1 35935U 09051E   19142.16004514  .00000051  00000-0  22863-4 0  9999
2 35935  98.5993 309.3166 0006922 258.1482 101.8938 14.55527881512630
XIWANG-1 (HOPE-1)
1 36122U 09072B   19142.45007472 -.00000033  00000-0  24106-4 0  9992
2 36122 100.0732 146.1118 0008160  52.6663 307.5201 13.16349517453295
TISAT 1
1 36799U 10035E   19141.96756199  .00000414  00000-0  47863-4 0  9992
2 36799  98.1523 293.2070 0012549 170.7798 189.3651 14.91084963480636
JUGNU
1 37839U 11058B   19142.19113164  .00000308  00000-0  22305-4 0  9995
2 37839  19.9598 141.5407 0019000  24.6162  57.5812 14.12650791393364
SRMSAT
1 37841U 11058D   19142.49339462  .00000299  00000-0  18795-4 0  9999
2 37841  19.9707 195.9234 0011637 258.0562 233.3451 14.10631994392842
M-CUBED/EXP-1 PRIME
1 37855U 11061F   19141.88393013  .00001060  00000-0  60887-4 0  9998
2 37855 101.7182  23.2072 0173785 159.2122 201.6272 15.05352742412594
HORYU 2
1 38340U 12025D   19141.91129499 +.00000139 +00000-0 +28340-4 0  9992
2 38340 098.3313 179.6649 0010911 206.4038 153.6615 14.75708701366657
STRAND 1
1 39090U 13009E   19142.45497526  .00000000  00000-0  15279-4 0  9991
2 39090  98.4910 348.8675 0009520  17.4703 342.6808 14.35083670326484
SOMP
1 39134U 13015E   19142.18921058  .00000885  00000-0  49928-4 0  9998
2 39134  64.8623 109.5351 0028399 308.9566  50.9030 15.20091085336418
BEESAT 3
1 39135U 13015F   19142.32626679  .00000725  00000-0  45872-4 0  9993
2 39135  64.8659 127.0075 0017016 324.6500  35.3496 15.17406167336097
BEESAT 2
1 39136U 13015G   19142.15522704  .00000527  00000-0  36587-4 0  9992
2 39136  64.8679 131.2979 0017606 307.7550  52.1980 15.16844686335996
CUBEBUG 1
1 39153U 13018D   19142.25685709  .00000132  00000-0  24169-4 0  9995
2 39153  97.9764 240.5391 0015537 288.8473  71.1054 14.80556727327757
ZACUBE
1 39417U 13066B   19141.93853410 +.00000144 +00000-0 +24423-4 0  9997
2 39417 097.5637 156.9987 0060328 124.1586 236.5368 14.81102487296932
TRITON 1
1 39427U 13066M   19142.18759331  .00000135  00000-0  29750-4 0  9991
2 39427  97.6742 121.2685 0112314 253.3814 105.5035 14.67828348294303
GOMX 1
1 39430U 13066Q   19142.46906264  .00000208  00000-0  46938-4 0  9993
2 39430  97.7442 100.8181 0151155 340.7027  18.8477 14.59241831292639
HUMSAT D
1 39433U 13066T   19142.12016341  .00000156  00000-0  20536-4 0  9995
2 39433  97.5559 190.7483 0031635  35.5021 324.8296 14.92168840298961
CUBEBUG 2
1 39440U 13066AA  19142.49580160  .00000146  00000-0  27179-4 0  9997
2 39440  97.6019 142.5401 0080469 172.2096 188.0386 14.75841569295960
FUNCUBE 1
1 39444U 13066AE  19142.02192613  .00000211  00000-0  32172-4 0  9994
2 39444  97.5619 158.9956 0059555 118.0107 242.7150 14.81918526295836
UWE-3
1 39446U 13066AG  19142.00511184  .00000144  00000-0  25635-4 0  9993
2 39446  97.5816 149.0670 0070879 149.3058 211.2330 14.78375621295172
SPROUT
1 39770U 14029E   19142.51921630  .00000559  00000-0  68034-4 0  9990
2 39770  97.8819 245.9940 0009143 166.5187 193.6274 14.87307719270798
UNISAT 6
1 40012U 14033C   19142.18215188  .00000137  00000-0  27869-4 0  9996
2 40012  97.7613   9.9737 0058096 185.1920 174.8694 14.73966405264636
DUCHIFAT 1
1 40021U 14033M   19141.75323848  .00000313  00000-0  37852-4 0  9990
2 40021  97.9239  66.2552 0013786 137.0883 223.1413 14.90606957267388
QB50P1
1 40025U 14033R   19141.81081779  .00000196  00000-0  26850-4 0  9990
2 40025  97.9066  61.5392 0013165 145.5093 214.6981 14.88926743267175
CHUBUSAT 1
1 40300U 14070C   19142.43734118  .00000598  00000-0  29042-4 0  9990
2 40300  97.3263 217.3032 0020016 147.8096 270.9860 15.22049778251871
NUDT-PHONESAT
1 40900U 15049B   19142.44669507  .00001758  00000-0  78404-4 0  9998
2 40900  97.4371 152.0506 0011027 282.2898 218.3628 15.22684953203511
ZDPS 2A
1 40901U 15049C   19142.51824459  .00000603  00000-0  33252-4 0  9996
2 40901  97.4590 148.7361 0012198 302.7945 176.7906 15.17680768203113
ZDPS 2B
1 40902U 15049D   19142.48017323  .00001215  00000-0  63941-4 0  9995
2 40902  97.4529 146.2416 0012077 300.2268 212.3576 15.17483349203089
XW-2A
1 40903U 15049E   19142.39127797  .00001496  00000-0  37383-4 0  9995
2 40903  97.3395 184.9974 0011915 240.5952 217.6740 15.41748984206040
KAITUO 1A
1 40904U 15049F   19142.47260035  .00000606  00000-0  35594-4 0  9992
2 40904  97.4662 144.9491 0013273 307.5828 205.6301 15.15341553202873
OBJECT G
1 40905U 15049G   19142.46760097  .00000600  00000-0  36343-4 0  9992
2 40905  97.4696 142.5326 0014397 301.6112 211.4662 15.14271800202759
XW-2C
1 40906U 15049H   19142.47372009  .00000796  00000-0  45302-4 0  9997
2 40906  97.4666 145.0047 0013335 298.1352 185.7815 15.15642793202872
XW-2D
1 40907U 15049J   19142.38533387  .00000651  00000-0  37478-4 0  9991
2 40907  97.4649 144.5955 0012640 295.2176 170.5384 15.15826639202872
LILACSAT 2
1 40908U 15049K   19142.36299159  .00000068  00000-0  73766-5 0  9999
2 40908  97.4767 143.4707 0014612 301.2455 166.2027 15.13778935202673
XW-2F
1 40910U 15049M   19142.43853737  .00000680  00000-0  37506-4 0  9999
2 40910  97.4619 146.5738 0013066 287.0669 177.1259 15.17239074202881
XW-2B
1 40911U 15049N   19142.41680582  .00000685  00000-0  39340-4 0  9997
2 40911  97.4669 145.2663 0012716 297.3989 168.6442 15.15757325202779
KAITUO 1B
1 40912U 15049P   19142.37972252  .00000864  00000-0  43809-4 0  9995
2 40912  97.4492 150.0894 0013225 268.7947 198.4404 15.19543154203166
TIANWANG 1C (TW-1C)
1 40926U 15051B   19142.50546759  .00009610  00000-0  14342-3 0  9994
2 40926  97.1374 188.7219 0009983 109.8240 357.9089 15.55207836205935
